www.pogodaiklimat.ru
ПОГОДА в Батагае
Время
(UTC), дата
18 18.05
21 18.05
00 19.05
03 19.05
06 19.05
09 19.05
12 19.05
15 19.05
18 19.05
21 19.05
00 20.05
03 20.05
06 20.05
09 20.05
12 20.05
15 20.05
18 20.05
21 20.05
00 21.05
03 21.05
06 21.05
09 21.05
12 21.05
15 21.05
18 21.05
21 21.05
00 22.05
03 22.05
06 22.05
09 22.05
12 22.05
15 22.05
18 22.05
21 22.05
00 23.05
03 23.05
06 23.05
09 23.05
12 23.05
15 23.05
18 23.05
21 23.05
00 24.05
03 24.05
06 24.05
09 24.05
12 24.05
15 24.05
18 24.05
21 24.05
00 25.05
03 25.05
06 25.05
09 25.05
12 25.05
Ветер
(напр.,м/с)
Видим. Явления Облачность Т
(С)
Тd
(С)
f
(%)
Тe
(С)
Тes
(С)
Комфортность P
(гПа)
Po
(гПа)
Тmin
(С)
Tmax
(С)
R
(мм)
R24
(мм)
S
(см)
СВ 4 50 км ясно +6.9 -5.4 41 +4 +4 1018.0 991.8
СВ 4 50 км ясно +9.9 -3.2 40 +8 +9 1018.6 992.6 +4.3
В 3 50 км ясно +13.5 -1.6 35 +13 +19 1018.3 992.6
В 3 50 км ясно +17.2 +0.9 33 +17 +26 1017.2 992.0
В 3 50 км ясно +17.8 +0.2 30 +18 +24 1016.0 990.9
В 3 50 км ясно +17.8 -0.2 30 +18 +20 1015.5 990.4 +18.3
В 3 50 км ясно +14.8 -2.0 31 +14 +14 1016.3 990.9
СВ 2 50 км ясно +7.8 -4.3 42 +6 +6 1017.6 991.5
штиль 0 50 км ясно +5.7 -5.3 45 +5 +6 1018.5 992.2
С 2 50 км ясно +9.8 -2.6 42 +9 +11 1019.1 993.1 +1.5
В 3 50 км ясно +14.0 -1.1 35 +13 +20 1018.9 993.3
СВ 3 50 км ясно +16.6 +0.2 33 +16 +25 1017.9 992.5
С 3 50 км 1/0
[Ci fib]
+18.4 +0.2 29 +19 +25 1016.8 991.7
С 4 50 км ясно +18.0 -1.7 26 +18 +20 1016.4 991.3 +18.6
С 4 50 км ясно +15.4 -3.3 27 +15 +15 1017.0 991.7
С 3 50 км ясно +8.8 -3.1 43 +7 +7 1018.3 992.3
СЗ 3 50 км ясно +7.0 -4.0 45 +5 +5 1018.9 992.7
С 4 50 км ясно +8.6 -2.7 45 +6 +8 1019.6 993.5 +6.7
С 6 50 км 1/0
[Ci fib]
+11.8 -0.2 44 +9 +12 1019.2 993.4
СЗ 6
{11}
50 км 8/0
[Ci fib]
+14.7 +1.1 40 +13 +17 1018.4 992.9
СЗ 6-11
{12}
50 км 4/0
[Ci fib]
+14.8 -0.5 35 +13 +16 1018.2 992.6
С 9-14
{13}
50 км 3/0
[Ci fib]
+13.7 -0.9 37 +11 +11 1018.4 992.7 +15.5
С 8-12
{14}
50 км 4/0
[Ac trans Ci fib]
+9.3 -2.7 43 +6 +6 1019.9 993.9
СЗ 8-12
{14}
50 км 10/0
[Ac trans Ci fib]
+3.2 -3.9 60 -3 -3 1021.2 994.6
СЗ 4
{12}
50 км 10/3 1500 м
[Sc Ac trans Ci fib]
-0.6 -4.4 75 -6 -6 1023.3 996.3
СЗ 5 50 км 10/8 630 м
[Sc Ci fib]
+0.2 -3.5 76 -6 -5 1023.5 996.6 -1.0
С 5 50 км 10/6 800 м
[Sc Ci fib]
+1.8 -4.0 65 -3 -2 1023.0 996.2
СЗ 4
{10}
50 км 10/8 600 м
[Sc Ci fib]
+3.3 -3.8 60 -1 0 1022.8 996.2
СЗ 5
{10}
50 км 10/4 1000 м
[Sc Ci fib]
+7.2 -1.9 52 +4 +6 1021.6 995.4
СЗ 7-11
{12}
50 км 6/1 1500 м
[Sc Ci fib]
+7.0 -2.9 49 +3 +3 1021.5 995.3 +7.8
С 7-11
{12}
50 км ясно +4.6 -4.6 51 -0 -0 1022.2 995.7
СЗ 4
{11}
50 км ясно +1.0 -5.0 64 -4 -4 1023.2 996.3
ЮЗ 3 50 км ясно -1.9 -5.4 77 -7 -7 1023.7 996.5
ЮЗ 2 50 км 10/1 1500 м
[Sc Ci fib]
+0.2 -3.6 76 -3 -1 1023.5 996.6 -2.0
З 3 50 км 10/0
[Ac trans Cs]
+3.6 -3.8 58 0 +5 1022.2 995.6
ЮЗ 3 50 км 10/0
[Ac trans Cs]
+7.6 -2.4 49 +5 +11 1020.0 993.8
Ю 3 50 км 10/3 1500 м
[Cb cap Ac trans Cs]
+10.4 -2.4 41 +9 +11 1017.5 991.7
ЮЗ 1 50 км 10/8 1500 м
[Cb cap Ac trans]
+9.3 -0.2 51 +9 +9 1016.5 990.6 +11.0
С 2 50 км слаб. ливневой дождь 10/8 1140 м
[Cb cap As trans]
+8.0 +0.2 58 +6 +6 1016.8 990.8
С 5 50 км слаб. ливневой дождь 10/8 960 м
[Cb cap As trans]
+6.9 +2.6 74 +3 +3 1017.5 991.4
СЗ 3 50 км {ливн. осадки} 10/6 540 м
[Cb cap As trans]
+6.1 +3.7 85 +3 +3 1018.0 991.8
СЗ 4 50 км 10/6 540 м
[Cb cap Ac trans]
+6.9 +3.6 79 +3 +4 1018.5 992.4 +5.8 0.3
З 2 50 км 10/8 930 м
[Cb cap Ac trans]
+8.2 +4.1 75 +6 +7 1018.3 992.3
ЮЗ 3 50 км в посл. час ливневой снег 10/5 1000 м
[Cb cap Ac trans]
+10.5 +6.7 77 +9 +10 1017.4 991.7
Ю 3 50 км слаб. ливневой дождь 10/5 1000 м
[Cb cap Ac trans]
+11.7 +4.9 63 +10 +12 1015.2 989.6
ЮВ 1 50 км {ливн. осадки} 10/5 1000 м
[Cb cap Ac trans]
+14.0 +6.1 59 +14 +15 1013.0 987.6 +15.2 0.1
В 2 50 км {ливн. осадки} 10/5 1500 м
[Cb cap Ac trans]
+12.4 +6.3 66 +12 +12 1011.4 986.0
В 4 50 км 10/4 1500 м
[Cb cap Ac trans Ci fib]
+8.5 +5.2 80 +5 +5 1011.4 985.6
С 1 50 км 10/4 1500 м
[Cb cap Ac trans Ci fib]
+7.2 +4.2 81 +6 +6 1011.5 985.6
В 1 50 км {ливн. осадки} 10/3 1000 м
[Cb cap Ac trans]
+8.0 +6.3 89 +7 +8 1011.0 985.1 +5.9 0.0
Ю 1 50 км {ливн. осадки} 10/3 1500 м
[Cb cap Ac trans Ci fib]
+14.0 +4.8 54 +15 +18 1008.3 983.0
ЮВ 2 50 км 10/3 1500 м
[Cb cap Ac cast Ci fib]
+20.2 +5.7 39 +22 +25 комфорт 1004.7 980.0
В 3 50 км 10/4 1500 м
[Cb cap Cs]
+22.3 +6.8 37 +23 +26 комфорт 1000.1 975.7
СВ 4-10
{19}
50 км гроза без осадков {ливн. осадки} 10/5 1500 м
[Cb cap Cs]
+13.8 +10.4 80 +12 +13 1000.9 975.9 +24.2 0.0
СЗ 3
{10}
50 км {гроза, ливн. осадки} 4/1 1500 м
[Cb cap Ci fib]
+14.4 +10.0 75 +14 +14 1001.0 976.0
Местоположение метеостанции Батагай (Якутия, Россия): широта 67.65 долгота 134.60 высота над уровнем моря 214 м.
В архиве по умолчанию представлена погода в Батагае за последнюю неделю. Архивные данные за месяц целиком и за предыдущие месяцы, начиная с января 2011 года, Вы можете получить, выбрав интересующий диапазон дат из раскрывающегося списка и нажав кнопку "Найти!".
*Определитесь, кто Вы:
Внимание! Время в таблицах - всемирное. Для получения местного времени необходимо прибавить поправку, которая равна 10 ч.
Смотрите также архив погоды в соседних городах и на ближайших метеорологических станциях:
Партнеры нашего сайта:      
Пояснения к столбцам:
  • Ветер - указаны скорость ветра в м/с - средняя за 10 мин, порывы в срок и между сроками (в фигурных скобках) и направление, откуда дует ветер: С - северный,
  • СВ - северо-восточный, В - восточный, ЮВ - юго-восточный, Ю - южный, ЮЗ - юго-западный, З - западный, СЗ - северо-западный.
  • Видимость - горизонтальная дальность видимости в метрах или километрах. При видимости от 1 до 10 км при отсутствии осадков обычно наблюдается дымка, при ухудшении видимости до 1 км и менее - туман. В сухую погоду видимость может ухудшаться дымом, пылью или мглою.
  • Явления - указаны атмосферные явления, наблюдавшиеся в срок или в последний час перед сроком; фигурными скобками обозначены явления, наблюдавшиеся между сроками (за 1-3 часа до срока); квадратными скобками обозначены град или гололедные отложения с указанием их диаметра в мм.
  • Облачность - указаны через наклонную черту общая и нижняя облачность в баллах и высота нижней границы облаков в метрах; квадратными скобками обозначены формы облаков: Ci - перистые, Cs - перисто-слоистые, Cc - перисто-кучевые, Ac - высококучевые, As - высокослоистые, Sc - слоисто-кучевые, Ns - слоисто-дождевые, Cu - кучевые, Cb - кучево-дождевые. Подробнее классификацию облаков см. в Атласе облаков (PDF).
  • T - Температура воздуха - температура, измеренная на высоте 2 м над землей.
  • Td - Температура точки росы - температура, при понижении до которой содержащийся в воздухе водяной пар достигнет насыщения.
  • f - Относительная влажность воздуха - влажноcть воздуха, измеренная на высоте 2 м над землей.
  • Te - Эффективная температура - температура, которую ощущает одетый по сезону человек в тени. Характеристика душности погоды. При расчете учитывается влияние влажности воздуха и скорости ветра на теплоощущения человека.
  • Tes - Эффективная температура на солнце - температура, которую ощущает человек, с поправкой на солнечный нагрев. Характеристика знойности погоды. Зависит от высоты солнца над горизонтом, облачности и скорости ветра. Ночью, в пасмурную погоду, а также при ветре 12 м/с и более поправка равна нулю.
  • P - Атмосферное давление - приведенное к уровню моря атмосферное давление.
  • Po - Атмосферное давление - измеренное на уровне метеостанции атмосферное давление.
  • Tmin - Минимальная температура - минимум температуры воздуха на высоте 2 м над землей.
  • Tmax - Максимальная температура - максимум температуры воздуха на высоте 2 м над землей.
  • R - Количество осадков - Количество выпавших осадков за период времени, мм. При наведении курсора мыши на число - период времени, за который выпало указанное количество осадков.
  • R24 - Количество осадков - Количество выпавших осадков за 24 часа, мм.
  • S - Снежный покров - Высота снежного покрова, см. При наведении курсора мыши на число - состояние снежного покрова и степень покрытия местности в баллах.